#timestamp,LO_Frequency,Hit,StdDev 
1455321615.2,286047001.8,N
1455321635.1,286047000.9,N
1455321636.0,286047000.9,N
1455321655.8,286047000.9,N
1455321675.6,286046998.7,N
1455321695.5,286046998.5,N
1455321715.3,286046999.7,N
1455321735.1,286047004.0,N
1455321755.9,286047001.6,N
1455321775.7,286047002.5,N
1455321795.5,286046999.3,N
1455321815.4,286047003.7,N
1455321835.2,286047001.6,N
1455321855.0,286047000.7,N
1455321855.9,286047000.7,N
1455321875.8,286047001.6,N
1455321895.6,286046999.6,N
1455321915.4,286046999.6,N
1455321935.2,286046997.2,N
1455321955.1,286046994.9,N
1455321956.0,286046994.9,N
1455321975.8,286046996.3,N
1455321995.6,286046994.2,N
1455322015.5,286046997.6,N
1455322035.3,286046997.6,N
1455322055.1,286046995.3,N
1455322075.9,286046994.3,N
1455322095.7,286047001.1,N
1455322115.5,286046999.2,N
1455322135.4,286046995.7,N
1455322155.2,286046997.9,N
1455322175.0,286046993.4,N
1455322175.9,286046993.4,N
1455322195.8,286046992.7,N
1455322215.6,286046992.2,N
1455322235.4,286046990.7,N
1455322255.3,286046994.2,N
1455322275.1,286046999.1,N
1455322276.0,286046999.1,N
1455322295.8,286047000.9,N
1455322315.6,286046999.5,N
1455322335.5,286046999.0,N
1455322355.3,286046997.6,N
1455322375.1,286046994.1,N
1455322395.9,286046996.4,N
1455322415.7,286046994.6,N
1455322435.5,286046992.7,N
1455322455.4,286046988.6,Y
1455322475.2,286046996.3,P
1455322495.0,286046997.4,P
1455322495.9,286046997.4,P
1455322515.8,286046997.0,Y
1455322535.6,286047003.7,P
1455322555.4,286047004.0,N
1455322575.3,286047006.0,N
1455322595.1,286047002.9,N
1455322615.8,286047005.7,N
1455322635.7,286047007.1,N
1455322655.5,286047008.2,N
1455322675.3,286047008.2,N
1455322695.2,286047004.8,N
1455322715.9,286047002.6,N
1455322735.7,286047003.8,N
1455322755.6,286047004.9,N
1455322775.4,286047007.6,N
1455322795.2,286047004.4,N
1455322815.0,286047002.0,N
1455322815.9,286047002.0,N
1455322835.8,286046998.1,N
1455322855.6,286047000.0,N
1455322875.4,286047002.2,N
1455322895.3,286047002.2,N
1455322915.1,286047003.8,N
1455322935.8,286047000.0,N
1455322955.7,286047004.3,N
1455322975.5,286047000.2,N
1455322995.3,286046999.9,N
1455323015.2,286046998.8,N
1455323035.9,286047001.0,N
1455323055.7,286047001.0,N
1455323075.5,286046999.6,N
1455323095.4,286046998.0,N
1455323115.2,286046998.9,N
1455323135.0,286047001.0,N
1455323135.9,286047001.0,N
1455323155.8,286046999.0,N
1455323175.6,286046997.2,N
1455323195.4,286046995.7,N
1455323215.3,286046996.4,N
1455323235.1,286046993.3,N
1455323255.8,286046993.7,N
1455323275.7,286046991.8,N
1455323295.5,286046992.7,N
1455323315.3,286046994.7,N
1455323335.2,286046992.9,N
1455323355.9,286046992.7,N
1455323375.7,286046987.0,Y
1455323395.6,286046993.1,P
1455323415.4,286046990.4,P
1455323435.2,286046988.9,P
1455323455.1,286046992.8,N
1455323456.0,286046992.8,N
1455323475.8,286046989.0,Y
1455323495.6,286046997.8,P
1455323515.5,286046996.6,N
1455323535.3,286046996.1,N
1455323555.1,286046997.3,N
1455323575.8,286046995.0,N
1455323595.7,286046996.4,N
1455323615.5,286046991.7,Y
1455323635.3,286047002.3,P
1455323655.2,286047002.4,N
1455323675.0,286046998.2,N
1455323675.9,286046998.2,N
1455323695.7,286046998.8,N
1455323715.6,286046996.6,N
1455323735.4,286046998.1,N
1455323755.2,286047000.6,N
1455323775.1,286047002.4,N
1455323776.0,286047002.4,N
1455323795.8,286047002.6,N
1455323815.6,286047001.6,N
1455323835.5,286047003.1,N
1455323855.3,286047003.1,N
1455323875.1,286047003.1,N
1455323895.9,286047001.4,N
1455323915.7,286047003.2,N
1455323935.5,286047005.8,N
1455323955.4,286046999.9,N
1455323975.2,286046999.5,N
1455323995.0,286046995.4,N
1455323995.9,286046995.4,N
1455324015.7,286046995.5,N
1455324035.6,286046995.7,N
1455324055.4,286046991.7,N
1455324075.2,286046993.1,N
1455324095.1,286046994.6,N
1455324096.0,286046994.6,N
1455324115.8,286046992.1,N
1455324135.6,286046992.5,N
1455324155.5,286046990.2,N
1455324175.3,286046992.7,N
1455324195.1,286046992.0,N
1455324215.9,286046990.6,N
1455324235.7,286046989.9,N
1455324255.5,286046988.9,N
1455324275.4,286046992.5,N
1455324295.2,286046990.5,N
1455324315.0,286046991.6,N
1455324315.9,286046991.6,N
1455324335.8,286046989.5,N
1455324355.6,286046991.0,N
1455324375.4,286046992.7,N
1455324395.2,286046991.4,N
1455324415.1,286046990.1,N
1455324416.0,286046990.1,N
1455324435.8,286046990.4,N
1455324455.6,286046990.5,N
1455324475.5,286046986.9,Y
1455324495.3,286046995.9,P
1455324515.1,286046997.3,N
1455324535.9,286046996.0,N
1455324555.7,286046994.2,Y
1455324575.5,286047000.1,P
1455324595.4,286047000.1,N
1455324615.2,286047001.0,N
1455324635.0,286047002.6,N
1455324635.9,286047002.6,N
1455324655.8,286047001.2,N
1455324675.6,286046998.8,N
1455324695.4,286047000.8,N
1455324715.3,286047002.3,N
1455324735.1,286047003.7,N
1455324736.0,286047003.7,N
1455324755.8,286047003.0,N
1455324775.7,286047007.5,Y
1455324795.5,286047001.9,P
1455324815.3,286047000.9,N
1455324835.2,286047000.9,N
1455324855.9,286046998.3,Y
1455324875.7,286047000.9,P
1455324895.6,286046999.9,N
1455324915.4,286047001.5,N
1455324935.2,286047002.4,Y
1455324955.1,286047000.1,P
1455324956.0,286047000.1,N
1455324975.8,286047000.1,N
1455324995.6,286046999.8,N
1455325015.5,286047002.2,Y
1455325035.3,286047004.7,P
1455325055.2,286047004.7,N
1455325075.0,286047007.6,P
1455325075.9,286047007.6,N
1455325095.8,286047005.4,N
1455325115.6,286047003.5,N
1455325135.4,286047001.6,N
1455325155.3,286047003.8,N
1455325175.1,286047000.6,N
1455325176.0,286047000.6,N
1455325195.8,286046999.2,N
1455321615.2,286046991.0,Y
1455321635.1,286047000.8,P
1455321636.0,286047000.8,N
1455321655.8,286046998.7,N
1455321675.6,286046993.3,N
1455321695.5,286046996.3,N
1455321715.3,286046998.0,N
1455321735.1,286046997.1,N
1455321755.9,286046999.2,N
1455321775.7,286046994.9,N
1455321795.5,286046993.7,N
1455321815.4,286046993.3,N
1455321835.2,286046997.6,N
1455321855.0,286046997.5,N
1455321855.9,286046997.5,N
1455321875.8,286046995.9,N
1455321895.6,286046994.1,N
1455321915.4,286046994.7,N
1455321935.2,286046994.1,N
1455321955.1,286046991.3,Y
1455321956.0,286046991.3,P
1455321975.8,286046996.1,N
1455321995.6,286046994.3,N
1455322015.5,286046993.3,Y
1455322035.3,286047000.1,P
1455322055.2,286047000.9,N
1455322075.9,286047002.7,N
1455322095.7,286047002.5,N
1455322115.5,286047000.8,N
1455322135.4,286047001.1,N
1455322155.2,286047000.3,N
1455322175.0,286046998.2,N
1455322175.9,286046998.2,N
1455322195.8,286047000.1,N
1455322215.6,286047001.3,N
1455322235.4,286047003.6,N
1455322255.3,286047002.0,N
1455322275.1,286047002.5,N
1455322276.0,286047002.5,N
1455322295.8,286046998.5,N
1455322315.7,286046998.4,N
1455322335.5,286046998.5,N
1455322355.3,286047000.6,N
1455322375.2,286046999.0,N
1455322395.9,286047001.0,N
1455322415.7,286047000.8,N
1455322435.5,286047001.2,N
1455322455.4,286046999.9,N
1455322475.2,286046996.5,N
1455322495.0,286046997.7,N
1455322495.9,286046997.7,N
1455322515.8,286046998.4,N
1455322535.6,286046997.8,N
1455322555.4,286047002.7,N
1455322575.3,286046999.5,N
1455322595.1,286046995.0,N
1455322596.0,286046995.0,N
1455322615.8,286046998.8,N
1455322635.7,286046998.5,N
1455322655.5,286046999.7,N
1455322675.3,286046998.4,N
1455322695.2,286046998.7,N
1455322715.9,286046999.5,N
1455322735.7,286046996.5,N
1455322755.5,286046996.7,N
1455322775.4,286046997.1,N
1455322795.2,286046997.8,N
1455322815.0,286046997.8,N
1455322815.9,286046997.8,N
1455322835.8,286046996.7,N
1455322855.6,286046995.3,N
1455322875.4,286046997.1,N
1455322895.3,286046994.9,N
1455322915.1,286046994.9,N
1455322935.8,286046995.2,N
1455322955.7,286046996.9,N
1455322975.5,286046999.1,N
1455322995.3,286046999.2,N
1455323015.2,286046994.9,N
1455323035.9,286046998.4,N
1455323055.7,286046999.0,N
1455323075.6,286046996.8,N
1455323095.4,286046997.1,N
1455323115.2,286046996.7,N
1455323135.0,286046998.4,N
1455323135.9,286046998.4,N
1455323155.8,286046999.0,N
1455323175.6,286046998.9,N
1455323195.4,286046999.9,N
1455323215.3,286046998.3,N
1455323235.1,286047001.2,N
1455323255.8,286046999.8,N
1455323275.7,286047000.9,N
1455323295.5,286047002.4,N
1455323315.3,286047001.2,N
1455323335.2,286047004.4,N
1455323355.9,286047002.6,N
1455323375.7,286047003.5,N
1455323395.6,286047005.3,N
1455323415.4,286047003.8,N
1455323435.2,286047001.7,N
1455323455.0,286046999.8,N
1455323456.0,286046999.8,N
1455323475.8,286046999.9,N
1455323495.6,286047006.9,N
1455323515.4,286047004.7,N
1455323535.3,286047009.1,Y
1455323555.1,286047008.3,P
1455323575.9,286047009.1,N
1455323595.7,286047010.7,N
1455323615.5,286047010.2,N
1455323635.3,286047008.5,N
1455323655.2,286047007.9,N
1455323675.0,286047012.3,Y
1455323675.9,286047012.3,P
1455323695.7,286047001.7,N
1455323715.6,286047003.8,N
1455323735.4,286047001.5,N
1455323755.2,286047003.2,N
1455323775.1,286047006.8,N
1455323776.0,286047006.8,N
1455323795.8,286047009.6,N
1455323815.6,286047010.2,N
1455323835.5,286047011.2,Y
1455323855.3,286047006.7,P
1455323875.1,286047007.2,P
1455323895.9,286047004.1,P
1455323915.7,286047008.0,Y
1455323935.5,286047005.7,P
1455323955.4,286047005.1,P
1455323975.2,286047006.4,P
1455323995.0,286047008.6,Y
1455323995.9,286047008.6,P
1455324015.8,286047003.9,N
1455324035.6,286047001.8,N
1455324055.4,286047003.9,N
1455324075.3,286047003.0,N
1455324095.1,286047004.0,N
1455324096.0,286047004.0,N
1455324115.8,286047005.5,N
1455324135.7,286047005.6,Y
1455324155.5,286047001.2,P
1455324175.3,286046999.2,N
1455324195.2,286046994.9,N
1455324215.9,286046997.6,N
1455324235.7,286046996.7,N
1455324255.6,286047002.6,N
1455324275.4,286046999.7,N
1455324295.2,286046997.3,N
1455324315.0,286046995.5,N
1455324316.0,286046995.5,N
1455324335.8,286046995.3,N
1455324355.6,286046996.6,N
1455324375.4,286046999.5,N
1455324395.3,286047000.3,N
1455324415.1,286047001.1,N
1455324435.8,286046998.8,N
1455324455.7,286047001.1,N
1455324475.5,286047000.1,N
1455324495.3,286047000.7,N
1455324515.2,286046999.1,N
1455324535.9,286046999.1,N
1455324555.7,286047002.4,N
1455324575.6,286047001.3,N
1455324595.4,286047007.4,N
1455324615.2,286047005.0,N
1455324635.0,286047005.8,N
1455324635.9,286047005.8,N
1455324655.8,286047001.9,N
1455324675.6,286046999.7,N
1455324695.4,286046998.6,N
1455324715.3,286046999.2,N
1455324735.1,286046997.7,N
1455324755.8,286046995.2,N
1455324775.7,286046997.7,N
1455324795.5,286046998.6,N
1455324815.3,286047000.1,N
1455324835.2,286047000.3,N
1455324855.9,286047002.3,N
1455324875.7,286047002.8,N
1455324895.6,286046998.4,N
1455324915.4,286047000.0,N
1455324935.2,286047005.8,N
1455324955.0,286047007.1,N
1455324956.0,286047007.1,N
1455324975.8,286047007.6,N
1455324995.6,286047006.7,N
1455325015.4,286047003.7,N
1455325035.3,286047002.4,N
1455325055.1,286047003.1,N
1455325075.8,286047002.9,N
1455325095.7,286047001.4,N
1455325115.5,286047000.2,N
1455325135.3,286047001.2,N
1455325155.2,286047001.0,N
1455325175.9,286047000.1,N
1455325195.7,286047002.4,N
